Regional Weather Roundup
Issued by NWS

Home | Current Version | Previous Version | Text Only | Print | Product List | Glossary On
Versions: 1 2 3 4 5 6 7 8 9 10 11 12 13 14 15 16 17 18 19 20 21 22 23 24 25 26 27 28 29 30 31 32 33 34 35 36 37 38 39 40 41 42 43 44 45 46 47 48 49 50
000
ASUS44 KFWD 280415
RWRTX
NORTH TEXAS HOURLY WEATHER ROUNDUP
NATIONAL WEATHER SERVICE FORT WORTH TX
1100 PM CDT FRI MAY 27 2016

NOTE: "FAIR" INDICATES FEW OR NO CLOUDS BELOW 12,000 FEET WITH NO
SIGNIFICANT WEATHER AND/OR OBSTRUCTIONS TO VISIBILITY.

TXZ118-119-280500-
DALLAS/FORT WORTH METROPLEX

CITY           SKY/WX    TMP DP  RH WIND       PRES   REMARKS
DFW AIRPORT    PTCLDY    68  63  84 S6        29.80R
DALLAS LOVE    PTCLDY    68  64  87 SE13      29.80R
FTW MEACHAM    CLEAR     69  63  81 S8        29.79R
DAL-EXECUTIVE  MOCLDY    66  64  93 S8        29.80R
FTW-ALLIANCE   PTCLDY    67  63  87 S7        29.79R
FTW-NAS-JRB    PTCLDY    70  63  78 S8        29.80R
FTW-SPINKS     CLEAR     65  63  91 SE3       29.81R
ARLINGTON      CLEAR     68  63  84 SE5       29.80R
GRAND PRAIRIE  CLEAR     67  67  99 SE6       29.81R
ADDISON        CLEAR     68  67  95 SE8       29.82R
MESQUITE       CLOUDY    67  66  94 SE6       29.82R
LANCASTER      CLOUDY    67  63  88 SE7       29.82R
$$

TXZ091>094-102>105-117-120-121-131>134-280500-
NORTH CENTRAL TEXAS

CITY           SKY/WX    TMP DP  RH WIND       PRES   REMARKS
SHRMAN/DENISON CLEAR     63  59  87 E8        29.85R
GAINESVILLE    CLEAR     65  61  86 E8        29.85R
BOWIE          CLEAR     67  62  83 SE3       29.80R
BRIDGEPORT     CLEAR     68  63  84 SE5       29.80R
DECATUR        CLEAR     67  61  81 SE5       29.80R
DENTON         CLEAR     68  62  81 SE7       29.80R
MCKINNEY       MOCLDY    67  65  93 SE7       29.82R
GREENVILLE     CLOUDY    68  64  88 S6        29.85R
ROCKWALL       CLOUDY    67  66  94 S7        29.82R
TERRELL        CLOUDY    68  65  90 SE7       29.83R
WAXAHACHIE     MOCLDY    64  64 100 CALM      29.81S
CLEBURNE       CLEAR     66  66 100 CALM      29.81S
GRANBURY       CLEAR     70  64  80 SE6       29.80S
$$

TXZ083>090-098>101-113>116-127>130-139>142-154-155-280500-
WESTERN NORTH TEXAS

CITY           SKY/WX    TMP DP  RH WIND       PRES   REMARKS
WICHITA FALLS  CLEAR     72  65  78 S13       29.76R
WF-KICKAPOO    CLEAR     73  65  78 SE9       29.77R
VERNON         CLEAR     74  64  68 S9        29.78R
ABILENE        CLEAR     70  65  84 S17G25    29.82R
ABILENE-DYESS  CLEAR     71  64  79 SE13      29.81R
BRECKENRIDGE   CLEAR     72  64  74 S13G18    29.78S
GRAHAM         CLEAR     71  65  82 S6        29.77R
MINERAL WELLS  CLEAR     68  62  81 SE12      29.78R
STEPHENVILLE   CLEAR     67  63  86 CALM      29.84R
COMANCHE       CLEAR     67  67 100 SE7       29.82R
BROWNWOOD      MOCLDY    68  66  94 S7        29.83R
COLEMAN        CLEAR     69  65  88 S6        29.84R
$$

TXZ143>147-156>162-174-175-280500-
CENTRAL TEXAS

CITY           SKY/WX    TMP DP  RH WIND       PRES   REMARKS
WACO           CLOUDY    67  65  93 S8        29.80R
WACO-MCGREGOR  CLOUDY   N/A N/A N/A S7          N/A
HILLSBORO      CLEAR     63  63  98 E6        29.82R
CORSICANA      CLOUDY    69  65  86 SE6       29.83R
MEXIA          CLOUDY    66  65  98 SE5       29.81R
HEARNE         CLOUDY    66  66  99 CALM      29.84R FOG
CAMERON        CLOUDY    67  65  96 CALM      29.81R FOG
TEMPLE         CLOUDY    66  66 100 S3        29.83R FOG
KILLEEN        CLEAR     63  62  97 S5        29.81R
KILLEEN-SKYLRK CLEAR     65  64  97 E3        29.82R
FORT HOOD      CLEAR     64  64 100 SE5       29.79R
GATESVILLE     CLEAR     66  64  94 CALM      29.83S
HAMILTON       CLEAR     65  65 100 MISG      29.82S
LAMPASAS       CLEAR     65  64  96 SW5       29.81S
$$

TXZ095>097-106>112-122>126-135>138-148>153-164>167-280500-
EAST TEXAS

CITY           SKY/WX    TMP DP  RH WIND       PRES   REMARKS
PARIS          CLOUDY    66  57  72 E5        29.88R
SULPHUR SPRNGS CLOUDY    69  65  88 S5        29.88R
MOUNT PLEASANT CLOUDY    67  67 100 N5        29.89R
GILMER         CLOUDY    66  64  94 CALM      29.85R
MINEOLA        CLOUDY    70  64  83 S3        29.86R
TYLER          CLOUDY    68  64  87 S8        29.84R
LONGVIEW       CLOUDY    66  65  96 SE7       29.83S
MARSHALL       CLOUDY    65  63  92 CALM      29.87S
ATHENS         CLOUDY    66  66 100 S3        29.82R
PALESTINE      CLOUDY    67  65  94 SE5       29.84R
JACKSONVILLE   CLOUDY    65  65  97 SE7       29.85S
HENDERSON      CLOUDY    66  64  94 S6        29.85S
CENTER         FAIR      68  66  94 S3        29.85R
NACOGDOCHES    CLOUDY    66  63  88 S9        29.85R
LUFKIN         CLOUDY    66  63  90 SE8       29.84R
$$

SUPPLEMENTAL OBSERVATIONS (CENTRAL)

CITY           SKY/WX    TMP DP  RH WIND       PRES   REMARKS
LAKE TEXOMA      N/A     66  63  88 SE8         N/A
CADDO GRASSLND   N/A     66  63  88 E3          N/A
PAT MAYSE LAKE   N/A     66  64  94 NE6         N/A
GREENVILLE       N/A     68  64  88 E3          N/A
MCGREGOR         N/A     66  63  88 S7          N/A
TEMPLE           N/A     66  64  94 SE2         N/A
$$

SUPPLEMENTAL OBSERVATIONS (WEST)

CITY           SKY/WX    TMP DP  RH WIND       PRES   REMARKS
MILLERS CREEK    N/A     72  66  83 S15G22      N/A
POSSUM KINGDOM   N/A     70  63  78 S9          N/A
LBJ GRASSLAND    N/A     68  61  77 SE6         N/A
GRANBURY         N/A     70  64  83 S7          N/A
HAMBY            N/A     72  64  78 S13         N/A
IVIE RESERVOIR   N/A     70  64  83 SE7         N/A
COLORADO BEND    N/A     66  63  88 SW2         N/A
$$

SUPPLEMENTAL OBSERVATIONS (EAST)

CITY           SKY/WX    TMP DP  RH WIND       PRES   REMARKS
CLARKSVILLE      N/A     66  64  94 E2          N/A
LINDEN           N/A     64  63  94 CALM        N/A
GILMER           N/A     66  63  88 S1          N/A
HENDERSON        N/A     66  63  88 S3          N/A
N SABINE NF      N/A     66  64  94 MISG        N/A
S SABINE NF      N/A     64  63  94 E1          N/A
$$

SUPPLEMENTAL OBSERVATIONS ARE A COLLECTION OF AUTOMATED INSTRUMENTS
THAT ARE MAINTAINED BY A VARIETY OF FEDERAL AND STATE AGENCIES.
CERTAIN ELEMENTS...SUCH AS HUMIDITY VALUES AND SUSTAINED WIND
SPEEDS...MAY BE APPROXIMATED.





USA.gov is the U.S. government's official web portal to all federal, state and local government web resources and services.